Location: Iesi
(43.5167°N, 13.2333°E)
Time: 02:48:49
(UTC+00:00)

Cosmos 2082 Rocket - Pass Details

Date: 08 August 2020
Orbit: 835 x 852 km, 71.0° (Epoch: 27 September)

Event Time Altitude Azimuth Distance (km) Brightness Sun altitude
Rises 21:46:44 0° 246° (WSW) 3,405 5.4 -27.5°
Reaches altitude 10° 21:49:47 10° 262° (W) 2,471 4.8 -27.7°
Maximum altitude 21:54:02 21° 311° (NW) 1,803 4.5 -28.0°
Drops below altitude 10° 21:58:18 10° 0° (N) 2,472 5.5 -28.3°
Sets 22:01:22 0° 16° (NNE) 3,407 6.1 -28.5°
